Time,TemperatureF,DewpointF,PressureIn,WindDirection,WindDirectionDegrees,WindSpeedMPH,WindSpeedGustMPH,Humidity,HourlyPrecipIn,Conditions,Clouds,dailyrainin,SoftwareType,DateUTC
2013-09-03 00:01:00,49.0,46.0,30.54,NNW,340,5.0,6.0,88,-99.99,,,-99.99,,2013-09-03 06:01:00,
2013-09-03 00:06:00,49.0,46.0,30.54,North,0,7.0,7.0,88,-99.99,,,-99.99,,2013-09-03 06:06:00,
2013-09-03 00:11:00,49.0,46.0,30.54,North,10,6.0,8.0,88,-99.99,,,-99.99,,2013-09-03 06:11:00,
2013-09-03 00:16:00,49.0,46.0,30.55,North,10,5.0,9.0,89,-99.99,,,-99.99,,2013-09-03 06:16:00,
2013-09-03 00:21:00,49.0,46.0,30.54,North,10,4.0,9.0,89,-99.99,,,-99.99,,2013-09-03 06:21:00,
2013-09-03 00:31:00,49.0,46.0,30.55,NW,320,5.0,6.0,90,-99.99,,,-99.99,,2013-09-03 06:31:00,
2013-09-03 00:36:00,49.0,46.0,30.55,North,10,7.0,7.0,90,-99.99,,,-99.99,,2013-09-03 06:36:00,
2013-09-03 00:41:00,49.0,46.0,30.55,North,10,7.0,8.0,90,-99.99,,,-99.99,,2013-09-03 06:41:00,
2013-09-03 00:51:00,48.0,46.0,30.55,North,350,7.0,9.0,90,-99.99,,,-99.99,,2013-09-03 06:51:00,
2013-09-03 00:56:00,48.0,46.0,30.55,WNW,300,10.0,10.0,90,-99.99,,,-99.99,,2013-09-03 06:56:00,
2013-09-03 01:06:00,48.0,45.0,30.55,NNE,30,5.0,9.0,90,-99.99,,,-99.99,,2013-09-03 07:06:00,
2013-09-03 01:11:00,48.0,45.0,30.55,North,0,5.0,8.0,91,-99.99,,,-99.99,,2013-09-03 07:11:00,
2013-09-03 01:16:00,47.0,45.0,30.55,North,350,8.0,8.0,92,-99.99,,,-99.99,,2013-09-03 07:16:00,
2013-09-03 01:21:00,47.0,45.0,30.55,North,350,8.0,8.0,92,-99.99,,,-99.99,,2013-09-03 07:21:00,
2013-09-03 01:31:00,48.0,45.0,30.55,NW,320,5.0,8.0,92,-99.99,,,-99.99,,2013-09-03 07:31:00,
2013-09-03 01:36:00,47.0,45.0,30.55,NNW,340,9.0,9.0,92,-99.99,,,-99.99,,2013-09-03 07:36:00,
2013-09-03 01:46:00,47.0,45.0,30.54,North,350,7.0,10.0,93,-99.99,,,-99.99,,2013-09-03 07:46:00,
2013-09-03 01:56:00,48.0,45.0,30.54,NNE,20,3.0,9.0,93,-99.99,,,-99.99,,2013-09-03 07:56:00,
2013-09-03 02:01:00,48.0,45.0,30.54,NE,40,4.0,9.0,92,-99.99,,,-99.99,,2013-09-03 08:01:00,
2013-09-03 02:06:00,47.0,45.0,30.54,ENE,60,2.0,6.0,93,-99.99,,,-99.99,,2013-09-03 08:06:00,
2013-09-03 02:16:00,47.0,45.0,30.54,NW,320,6.0,6.0,93,-99.99,,,-99.99,,2013-09-03 08:16:00,
2013-09-03 02:21:00,47.0,45.0,30.54,NW,310,9.0,9.0,93,-99.99,,,-99.99,,2013-09-03 08:21:00,
2013-09-03 02:26:00,47.0,45.0,30.54,NW,320,6.0,9.0,94,-99.99,,,-99.99,,2013-09-03 08:26:00,
2013-09-03 02:31:00,47.0,45.0,30.54,NNW,340,7.0,11.0,94,-99.99,,,-99.99,,2013-09-03 08:31:00,
2013-09-03 02:41:00,47.0,46.0,30.54,West,270,6.0,9.0,94,-99.99,,,-99.99,,2013-09-03 08:41:00,
2013-09-03 02:51:00,48.0,46.0,30.53,North,10,7.0,8.0,94,-99.99,,,-99.99,,2013-09-03 08:51:00,
2013-09-03 03:01:00,48.0,46.0,30.53,North,0,6.0,9.0,94,-99.99,,,-99.99,,2013-09-03 09:01:00,
2013-09-03 03:11:00,48.0,46.0,30.53,North,10,6.0,9.0,93,-99.99,,,-99.99,,2013-09-03 09:11:00,
2013-09-03 03:16:00,48.0,46.0,30.54,NE,40,4.0,10.0,93,-99.99,,,-99.99,,2013-09-03 09:16:00,
2013-09-03 03:21:00,48.0,46.0,30.54,North,0,4.0,9.0,93,-99.99,,,-99.99,,2013-09-03 09:21:00,
2013-09-03 03:26:00,48.0,46.0,30.53,North,0,5.0,7.0,94,-99.99,,,-99.99,,2013-09-03 09:26:00,
2013-09-03 03:31:00,48.0,46.0,30.53,NNE,20,4.0,6.0,94,-99.99,,,-99.99,,2013-09-03 09:31:00,
2013-09-03 03:36:00,48.0,46.0,30.53,NNE,30,3.0,6.0,94,-99.99,,,-99.99,,2013-09-03 09:36:00,
2013-09-03 03:41:00,48.0,46.0,30.54,North,0,2.0,5.0,94,-99.99,,,-99.99,,2013-09-03 09:41:00,
2013-09-03 03:46:00,48.0,46.0,30.54,North,0,8.0,8.0,94,-99.99,,,-99.99,,2013-09-03 09:46:00,
2013-09-03 03:51:00,48.0,46.0,30.53,North,0,3.0,8.0,94,-99.99,,,-99.99,,2013-09-03 09:51:00,
2013-09-03 04:01:00,48.0,46.0,30.54,NNW,340,6.0,6.0,95,-99.99,,,-99.99,,2013-09-03 10:01:00,
2013-09-03 04:06:00,48.0,46.0,30.54,NNW,330,8.0,8.0,95,-99.99,,,-99.99,,2013-09-03 10:06:00,
2013-09-03 04:11:00,48.0,46.0,30.54,North,350,6.0,8.0,94,-99.99,,,-99.99,,2013-09-03 10:11:00,
2013-09-03 04:16:00,48.0,46.0,30.54,NW,310,3.0,8.0,94,-99.99,,,-99.99,,2013-09-03 10:16:00,
2013-09-03 04:21:00,48.0,47.0,30.53,NNW,340,6.0,7.0,94,-99.99,,,-99.99,,2013-09-03 10:21:00,
2013-09-03 04:31:00,48.0,47.0,30.53,NNE,30,3.0,6.0,94,-99.99,,,-99.99,,2013-09-03 10:31:00,
2013-09-03 04:41:00,48.0,46.0,30.53,NNE,30,5.0,8.0,94,-99.99,,,-99.99,,2013-09-03 10:41:00,
2013-09-03 04:46:00,48.0,47.0,30.53,NNW,340,7.0,7.0,94,-99.99,,,-99.99,,2013-09-03 10:46:00,
2013-09-03 04:56:00,48.0,46.0,30.53,WNW,290,5.0,7.0,95,-99.99,,,-99.99,,2013-09-03 10:56:00,
2013-09-03 05:01:00,48.0,46.0,30.53,NNW,340,7.0,7.0,95,-99.99,,,-99.99,,2013-09-03 11:01:00,
2013-09-03 05:06:00,48.0,46.0,30.53,North,0,6.0,7.0,95,-99.99,,,-99.99,,2013-09-03 11:06:00,
2013-09-03 05:11:00,48.0,46.0,30.54,NNW,340,9.0,9.0,95,-99.99,,,-99.99,,2013-09-03 11:11:00,
2013-09-03 05:16:00,48.0,46.0,30.54,North,0,3.0,8.0,95,-99.99,,,-99.99,,2013-09-03 11:16:00,
2013-09-03 05:21:00,47.0,46.0,30.54,North,0,5.0,7.0,95,-99.99,,,-99.99,,2013-09-03 11:21:00,
2013-09-03 05:26:00,47.0,46.0,30.54,North,0,7.0,8.0,95,-99.99,,,-99.99,,2013-09-03 11:26:00,
2013-09-03 05:36:00,47.0,46.0,30.54,North,0,5.0,8.0,95,-99.99,,,-99.99,,2013-09-03 11:36:00,
2013-09-03 05:41:00,47.0,45.0,30.54,WNW,290,6.0,7.0,95,-99.99,,,-99.99,,2013-09-03 11:41:00,
2013-09-03 05:46:00,47.0,45.0,30.54,NW,320,5.0,7.0,95,-99.99,,,-99.99,,2013-09-03 11:46:00,
2013-09-03 05:51:00,47.0,45.0,30.54,NW,320,7.0,7.0,96,-99.99,,,-99.99,,2013-09-03 11:51:00,
2013-09-03 06:01:00,46.0,45.0,30.54,NNE,30,7.0,8.0,96,-99.99,,,-99.99,,2013-09-03 12:01:00,
2013-09-03 06:11:00,46.0,45.0,30.55,NNW,330,9.0,9.0,97,-99.99,,,-99.99,,2013-09-03 12:11:00,
2013-09-03 06:16:00,46.0,45.0,30.55,North,0,8.0,10.0,97,-99.99,,,-99.99,,2013-09-03 12:16:00,
2013-09-03 06:21:00,46.0,45.0,30.55,North,0,8.0,10.0,97,-99.99,,,-99.99,,2013-09-03 12:21:00,
2013-09-03 06:26:00,46.0,45.0,30.55,NW,320,7.0,10.0,97,-99.99,,,-99.99,,2013-09-03 12:26:00,
2013-09-03 06:31:00,46.0,45.0,30.55,NNW,330,9.0,10.0,97,-99.99,,,-99.99,,2013-09-03 12:31:00,
2013-09-03 06:36:00,46.0,45.0,30.55,NW,320,10.0,10.0,97,-99.99,,,-99.99,,2013-09-03 12:36:00,
2013-09-03 06:41:00,45.0,45.0,30.55,NNW,330,6.0,9.0,98,-99.99,,,-99.99,,2013-09-03 12:41:00,
2013-09-03 06:46:00,46.0,45.0,30.55,North,0,3.0,10.0,98,-99.99,,,-99.99,,2013-09-03 12:46:00,
2013-09-03 06:51:00,45.0,45.0,30.55,NNE,20,6.0,8.0,97,-99.99,,,-99.99,,2013-09-03 12:51:00,
2013-09-03 07:01:00,45.0,44.0,30.56,North,0,3.0,8.0,98,-99.99,,,-99.99,,2013-09-03 13:01:00,
2013-09-03 07:06:00,45.0,44.0,30.56,NW,310,8.0,8.0,98,-99.99,,,-99.99,,2013-09-03 13:06:00,
2013-09-03 07:11:00,45.0,44.0,30.56,NNW,340,7.0,9.0,98,-99.99,,,-99.99,,2013-09-03 13:11:00,
2013-09-03 07:16:00,45.0,44.0,30.56,North,0,7.0,8.0,98,-99.99,,,-99.99,,2013-09-03 13:16:00,
2013-09-03 07:21:00,45.0,44.0,30.56,North,350,3.0,7.0,98,-99.99,,,-99.99,,2013-09-03 13:21:00,
2013-09-03 07:26:00,45.0,45.0,30.56,North,10,0.0,8.0,98,-99.99,,,-99.99,,2013-09-03 13:26:00,
2013-09-03 07:31:00,46.0,45.0,30.56,North,0,3.0,5.0,97,-99.99,,,-99.99,,2013-09-03 13:31:00,
2013-09-03 07:41:00,48.0,46.0,30.56,NNE,20,3.0,7.0,95,-99.99,,,-99.99,,2013-09-03 13:41:00,
2013-09-03 07:51:00,49.0,47.0,30.57,NNW,340,5.0,7.0,93,-99.99,,,-99.99,,2013-09-03 13:51:00,
2013-09-03 07:56:00,50.0,48.0,30.57,North,350,3.0,7.0,92,-99.99,,,-99.99,,2013-09-03 13:56:00,
2013-09-03 08:01:00,51.0,48.0,30.57,NW,320,6.0,7.0,90,-99.99,,,-99.99,,2013-09-03 14:01:00,
2013-09-03 08:11:00,52.0,49.0,30.57,NW,310,5.0,7.0,88,-99.99,,,-99.99,,2013-09-03 14:11:00,
2013-09-03 08:21:00,54.0,49.0,30.57,North,0,4.0,6.0,85,-99.99,,,-99.99,,2013-09-03 14:21:00,
2013-09-03 08:26:00,55.0,50.0,30.57,ENE,70,2.0,6.0,83,-99.99,,,-99.99,,2013-09-03 14:26:00,
2013-09-03 08:31:00,55.0,50.0,30.57,WNW,300,5.0,5.0,81,-99.99,,,-99.99,,2013-09-03 14:31:00,
2013-09-03 08:36:00,56.0,50.0,30.57,NNW,330,7.0,7.0,79,-99.99,,,-99.99,,2013-09-03 14:36:00,
2013-09-03 08:41:00,56.0,50.0,30.57,WNW,290,6.0,6.0,78,-99.99,,,-99.99,,2013-09-03 14:41:00,
2013-09-03 08:46:00,57.0,50.0,30.57,WNW,300,4.0,8.0,77,-99.99,,,-99.99,,2013-09-03 14:46:00,
2013-09-03 08:56:00,58.0,50.0,30.57,NNE,20,0.0,5.0,76,-99.99,,,-99.99,,2013-09-03 14:56:00,
2013-09-03 09:01:00,58.0,51.0,30.57,North,0,4.0,8.0,75,-99.99,,,-99.99,,2013-09-03 15:01:00,
2013-09-03 09:11:00,60.0,51.0,30.56,West,280,5.0,5.0,72,-99.99,,,-99.99,,2013-09-03 15:11:00,
2013-09-03 09:16:00,60.0,51.0,30.56,NW,310,5.0,6.0,70,-99.99,,,-99.99,,2013-09-03 15:16:00,
2013-09-03 09:21:00,61.0,51.0,30.55,NW,310,3.0,6.0,69,-99.99,,,-99.99,,2013-09-03 15:21:00,
2013-09-03 09:26:00,61.0,51.0,30.55,WNW,290,0.0,6.0,68,-99.99,,,-99.99,,2013-09-03 15:26:00,
2013-09-03 09:31:00,62.0,51.0,30.55,WNW,300,3.0,6.0,66,-99.99,,,-99.99,,2013-09-03 15:31:00,
2013-09-03 09:36:00,63.0,51.0,30.55,West,260,3.0,6.0,65,-99.99,,,-99.99,,2013-09-03 15:36:00,
2013-09-03 09:41:00,63.0,51.0,30.55,WNW,300,0.0,6.0,65,-99.99,,,-99.99,,2013-09-03 15:41:00,
2013-09-03 09:51:00,64.0,51.0,30.54,NNW,330,0.0,6.0,62,-99.99,,,-99.99,,2013-09-03 15:51:00,
2013-09-03 10:01:00,65.0,50.0,30.54,West,270,0.0,4.0,58,-99.99,,,-99.99,,2013-09-03 16:01:00,
2013-09-03 10:06:00,66.0,51.0,30.54,West,270,0.0,5.0,57,-99.99,,,-99.99,,2013-09-03 16:06:00,
2013-09-03 10:16:00,67.0,51.0,30.55,SSE,160,0.0,0.0,56,-99.99,,,-99.99,,2013-09-03 16:16:00,
2013-09-03 10:21:00,68.0,52.0,30.55,SE,140,3.0,5.0,56,-99.99,,,-99.99,,2013-09-03 16:21:00,
2013-09-03 10:31:00,69.0,50.0,30.55,SSE,150,6.0,8.0,52,-99.99,,,-99.99,,2013-09-03 16:31:00,
2013-09-03 10:36:00,68.0,50.0,30.55,South,180,5.0,7.0,53,-99.99,,,-99.99,,2013-09-03 16:36:00,
2013-09-03 10:41:00,69.0,51.0,30.55,SSE,160,5.0,7.0,52,-99.99,,,-99.99,,2013-09-03 16:41:00,
2013-09-03 10:46:00,69.0,51.0,30.55,SSE,160,7.0,9.0,52,-99.99,,,-99.99,,2013-09-03 16:46:00,
2013-09-03 10:56:00,70.0,51.0,30.55,SSE,150,9.0,10.0,51,-99.99,,,-99.99,,2013-09-03 16:56:00,
2013-09-03 11:06:00,70.0,52.0,30.55,SSE,160,6.0,11.0,52,-99.99,,,-99.99,,2013-09-03 17:06:00,
2013-09-03 11:11:00,71.0,51.0,30.55,SE,140,11.0,11.0,50,-99.99,,,-99.99,,2013-09-03 17:11:00,
2013-09-03 11:16:00,71.0,52.0,30.55,SE,130,12.0,13.0,50,-99.99,,,-99.99,,2013-09-03 17:16:00,
2013-09-03 11:26:00,72.0,51.0,30.55,South,170,9.0,12.0,48,-99.99,,,-99.99,,2013-09-03 17:26:00,
2013-09-03 11:31:00,73.0,52.0,30.55,South,170,8.0,10.0,48,-99.99,,,-99.99,,2013-09-03 17:31:00,
2013-09-03 11:36:00,73.0,51.0,30.55,SSE,160,11.0,11.0,46,-99.99,,,-99.99,,2013-09-03 17:36:00,
2013-09-03 11:41:00,74.0,51.0,30.55,South,170,11.0,11.0,45,-99.99,,,-99.99,,2013-09-03 17:41:00,
2013-09-03 11:51:00,74.0,51.0,30.55,South,170,11.0,11.0,45,-99.99,,,-99.99,,2013-09-03 17:51:00,
2013-09-03 11:56:00,74.0,51.0,30.55,SSE,160,7.0,12.0,44,-99.99,,,-99.99,,2013-09-03 17:56:00,
2013-09-03 12:06:00,75.0,50.0,30.54,South,180,7.0,7.0,42,-99.99,,,-99.99,,2013-09-03 18:06:00,
2013-09-03 12:16:00,75.0,49.0,30.54,ESE,110,0.0,7.0,40,-99.99,,,-99.99,,2013-09-03 18:16:00,
2013-09-03 12:26:00,75.0,47.0,30.54,East,100,0.0,5.0,38,-99.99,,,-99.99,,2013-09-03 18:26:00,
2013-09-03 12:36:00,74.0,47.0,30.53,East,100,0.0,0.0,39,-99.99,,,-99.99,,2013-09-03 18:36:00,
2013-09-03 12:41:00,74.0,48.0,30.53,East,100,0.0,0.0,40,-99.99,,,-99.99,,2013-09-03 18:41:00,
2013-09-03 12:46:00,73.0,49.0,30.53,South,180,9.0,0.0,43,-99.99,,,-99.99,,2013-09-03 18:46:00,
2013-09-03 12:51:00,73.0,48.0,30.53,SSE,160,6.0,8.0,41,-99.99,,,-99.99,,2013-09-03 18:51:00,
2013-09-03 12:56:00,73.0,49.0,30.53,SSE,160,7.0,8.0,43,-99.99,,,-99.99,,2013-09-03 18:56:00,
2013-09-03 13:06:00,73.0,48.0,30.52,SE,130,3.0,6.0,41,-99.99,,,-99.99,,2013-09-03 19:06:00,
2013-09-03 13:16:00,74.0,48.0,30.52,South,180,3.0,0.0,40,-99.99,,,-99.99,,2013-09-03 19:16:00,
2013-09-03 13:21:00,75.0,47.0,30.52,South,190,0.0,4.0,37,-99.99,,,-99.99,,2013-09-03 19:21:00,
2013-09-03 13:31:00,77.0,46.0,30.52,South,190,4.0,4.0,34,-99.99,,,-99.99,,2013-09-03 19:31:00,
2013-09-03 13:36:00,77.0,44.0,30.52,SE,130,0.0,6.0,31,-99.99,,,-99.99,,2013-09-03 19:36:00,
2013-09-03 13:41:00,78.0,46.0,30.51,SSE,150,3.0,6.0,32,-99.99,,,-99.99,,2013-09-03 19:41:00,
2013-09-03 13:51:00,79.0,43.0,30.51,SSE,150,0.0,5.0,29,-99.99,,,-99.99,,2013-09-03 19:51:00,
2013-09-03 13:56:00,79.0,44.0,30.51,South,170,0.0,4.0,29,-99.99,,,-99.99,,2013-09-03 19:56:00,
2013-09-03 14:01:00,79.0,45.0,30.51,North,0,5.0,5.0,30,-99.99,,,-99.99,,2013-09-03 20:01:00,
2013-09-03 14:06:00,79.0,45.0,30.50,ENE,70,6.0,6.0,31,-99.99,,,-99.99,,2013-09-03 20:06:00,
2013-09-03 14:16:00,79.0,45.0,30.50,NNW,340,0.0,5.0,30,-99.99,,,-99.99,,2013-09-03 20:16:00,
2013-09-03 14:21:00,79.0,45.0,30.50,West,280,5.0,8.0,30,-99.99,,,-99.99,,2013-09-03 20:21:00,
2013-09-03 14:31:00,78.0,45.0,30.50,West,280,0.0,8.0,31,-99.99,,,-99.99,,2013-09-03 20:31:00,
2013-09-03 14:36:00,78.0,46.0,30.50,NW,320,0.0,6.0,32,-99.99,,,-99.99,,2013-09-03 20:36:00,
2013-09-03 14:41:00,78.0,46.0,30.50,West,270,0.0,4.0,32,-99.99,,,-99.99,,2013-09-03 20:41:00,
2013-09-03 14:46:00,77.0,46.0,30.50,WSW,240,6.0,6.0,33,-99.99,,,-99.99,,2013-09-03 20:46:00,
2013-09-03 14:51:00,77.0,46.0,30.50,West,280,5.0,6.0,34,-99.99,,,-99.99,,2013-09-03 20:51:00,
2013-09-03 14:56:00,76.0,47.0,30.50,WNW,290,7.0,7.0,35,-99.99,,,-99.99,,2013-09-03 20:56:00,
2013-09-03 15:06:00,75.0,45.0,30.50,West,260,8.0,9.0,34,-99.99,,,-99.99,,2013-09-03 21:06:00,
2013-09-03 15:11:00,75.0,44.0,30.50,West,260,8.0,10.0,34,-99.99,,,-99.99,,2013-09-03 21:11:00,
2013-09-03 15:21:00,74.0,44.0,30.49,West,260,7.0,9.0,34,-99.99,,,-99.99,,2013-09-03 21:21:00,
2013-09-03 15:31:00,74.0,44.0,30.49,West,260,10.0,12.0,35,-99.99,,,-99.99,,2013-09-03 21:31:00,
2013-09-03 15:36:00,74.0,44.0,30.49,WSW,250,11.0,13.0,34,-99.99,,,-99.99,,2013-09-03 21:36:00,
2013-09-03 15:46:00,75.0,44.0,30.49,West,260,13.0,14.0,33,-99.99,,,-99.99,,2013-09-03 21:46:00,
2013-09-03 15:56:00,74.0,45.0,30.48,SW,220,11.0,14.0,36,-99.99,,,-99.99,,2013-09-03 21:56:00,
2013-09-03 16:01:00,75.0,45.0,30.48,WSW,250,15.0,15.0,35,-99.99,,,-99.99,,2013-09-03 22:01:00,
2013-09-03 16:11:00,75.0,46.0,30.48,SW,230,17.0,18.0,36,-99.99,,,-99.99,,2013-09-03 22:11:00,
2013-09-03 16:16:00,75.0,45.0,30.48,West,270,11.0,18.0,35,-99.99,,,-99.99,,2013-09-03 22:16:00,
2013-09-03 16:26:00,77.0,46.0,30.48,SW,230,10.0,17.0,33,-99.99,,,-99.99,,2013-09-03 22:26:00,
2013-09-03 16:36:00,76.0,45.0,30.49,West,280,10.0,14.0,33,-99.99,,,-99.99,,2013-09-03 22:36:00,
2013-09-03 16:46:00,75.0,45.0,30.48,West,280,3.0,11.0,35,-99.99,,,-99.99,,2013-09-03 22:46:00,
2013-09-03 16:56:00,75.0,48.0,30.48,West,270,3.0,4.0,39,-99.99,,,-99.99,,2013-09-03 22:56:00,
2013-09-03 17:01:00,75.0,48.0,30.48,North,0,7.0,7.0,39,-99.99,,,-99.99,,2013-09-03 23:01:00,
2013-09-03 17:11:00,76.0,49.0,30.49,NW,320,5.0,7.0,38,-99.99,,,-99.99,,2013-09-03 23:11:00,
2013-09-03 17:16:00,76.0,48.0,30.49,WNW,300,3.0,9.0,37,-99.99,,,-99.99,,2013-09-03 23:16:00,
2013-09-03 17:26:00,76.0,47.0,30.50,WNW,300,6.0,10.0,36,-99.99,,,-99.99,,2013-09-03 23:26:00,
2013-09-03 17:31:00,76.0,46.0,30.49,WNW,300,7.0,13.0,35,-99.99,,,-99.99,,2013-09-03 23:31:00,
2013-09-03 17:41:00,75.0,45.0,30.50,WNW,290,6.0,9.0,35,-99.99,,,-99.99,,2013-09-03 23:41:00,
2013-09-03 17:51:00,74.0,46.0,30.50,NNE,20,3.0,9.0,37,-99.99,,,-99.99,,2013-09-03 23:51:00,
2013-09-03 18:01:00,74.0,49.0,30.50,NNW,340,0.0,9.0,41,-99.99,,,-99.99,,2013-09-04 00:01:00,
2013-09-03 18:06:00,74.0,50.0,30.50,West,280,4.0,5.0,43,-99.99,,,-99.99,,2013-09-04 00:06:00,
2013-09-03 18:16:00,73.0,50.0,30.50,NNW,340,6.0,6.0,44,-99.99,,,-99.99,,2013-09-04 00:16:00,
2013-09-03 18:21:00,73.0,50.0,30.50,North,0,0.0,7.0,45,-99.99,,,-99.99,,2013-09-04 00:21:00,
2013-09-03 18:31:00,73.0,50.0,30.50,NNE,30,3.0,5.0,45,-99.99,,,-99.99,,2013-09-04 00:31:00,
2013-09-03 18:36:00,73.0,50.0,30.50,NNE,20,3.0,6.0,45,-99.99,,,-99.99,,2013-09-04 00:36:00,
2013-09-03 18:46:00,72.0,49.0,30.50,ENE,60,3.0,7.0,45,-99.99,,,-99.99,,2013-09-04 00:46:00,
2013-09-03 18:51:00,71.0,49.0,30.50,NE,50,3.0,7.0,46,-99.99,,,-99.99,,2013-09-04 00:51:00,
2013-09-03 18:56:00,71.0,48.0,30.51,East,80,0.0,5.0,44,-99.99,,,-99.99,,2013-09-04 00:56:00,
2013-09-03 19:06:00,70.0,47.0,30.52,East,80,8.0,14.0,45,-99.99,,,-99.99,,2013-09-04 01:06:00,
2013-09-03 19:11:00,69.0,47.0,30.52,East,90,6.0,17.0,45,-99.99,,,-99.99,,2013-09-04 01:11:00,
2013-09-03 19:21:00,69.0,49.0,30.53,South,180,4.0,12.0,49,-99.99,,,-99.99,,2013-09-04 01:21:00,
2013-09-03 19:26:00,68.0,49.0,30.53,SSE,150,9.0,10.0,49,-99.99,,,-99.99,,2013-09-04 01:26:00,
2013-09-03 19:31:00,68.0,49.0,30.53,South,180,3.0,12.0,50,-99.99,,,-99.99,,2013-09-04 01:31:00,
2013-09-03 19:36:00,68.0,49.0,30.53,SE,130,5.0,6.0,52,-99.99,,,-99.99,,2013-09-04 01:36:00,
2013-09-03 19:41:00,67.0,50.0,30.54,South,180,7.0,9.0,53,-99.99,,,-99.99,,2013-09-04 01:41:00,
2013-09-03 19:51:00,67.0,50.0,30.54,SE,140,5.0,7.0,53,-99.99,,,-99.99,,2013-09-04 01:51:00,
2013-09-03 19:56:00,67.0,50.0,30.54,SSE,160,4.0,7.0,54,-99.99,,,-99.99,,2013-09-04 01:56:00,
2013-09-03 20:01:00,67.0,50.0,30.55,ENE,70,0.0,9.0,54,-99.99,,,-99.99,,2013-09-04 02:01:00,
2013-09-03 20:11:00,66.0,48.0,30.55,South,170,0.0,10.0,52,-99.99,,,-99.99,,2013-09-04 02:11:00,
2013-09-03 20:16:00,66.0,48.0,30.55,ENE,70,0.0,7.0,52,-99.99,,,-99.99,,2013-09-04 02:16:00,
2013-09-03 20:21:00,66.0,49.0,30.55,ENE,60,6.0,8.0,53,-99.99,,,-99.99,,2013-09-04 02:21:00,
2013-09-03 20:26:00,66.0,50.0,30.55,East,100,10.0,10.0,55,-99.99,,,-99.99,,2013-09-04 02:26:00,
2013-09-03 20:31:00,65.0,50.0,30.56,East,90,6.0,10.0,57,-99.99,,,-99.99,,2013-09-04 02:31:00,
2013-09-03 20:36:00,65.0,50.0,30.56,ESE,110,6.0,9.0,57,-99.99,,,-99.99,,2013-09-04 02:36:00,
2013-09-03 20:41:00,65.0,50.0,30.56,East,100,7.0,10.0,59,-99.99,,,-99.99,,2013-09-04 02:41:00,
2013-09-03 20:51:00,64.0,51.0,30.57,East,80,8.0,10.0,61,-99.99,,,-99.99,,2013-09-04 02:51:00,
2013-09-03 20:56:00,64.0,51.0,30.57,ESE,110,10.0,15.0,63,-99.99,,,-99.99,,2013-09-04 02:56:00,
2013-09-03 21:01:00,63.0,51.0,30.57,East,80,7.0,11.0,64,-99.99,,,-99.99,,2013-09-04 03:01:00,
2013-09-03 21:11:00,63.0,51.0,30.57,ENE,60,6.0,11.0,65,-99.99,,,-99.99,,2013-09-04 03:11:00,
2013-09-03 21:16:00,63.0,51.0,30.58,East,90,8.0,10.0,65,-99.99,,,-99.99,,2013-09-04 03:16:00,
2013-09-03 21:21:00,63.0,51.0,30.58,East,90,7.0,10.0,65,-99.99,,,-99.99,,2013-09-04 03:21:00,
2013-09-03 21:31:00,63.0,51.0,30.58,NE,50,0.0,9.0,65,-99.99,,,-99.99,,2013-09-04 03:31:00,
2013-09-03 21:36:00,63.0,51.0,30.58,NE,40,5.0,5.0,65,-99.99,,,-99.99,,2013-09-04 03:36:00,
2013-09-03 21:41:00,63.0,50.0,30.58,East,100,4.0,6.0,63,-99.99,,,-99.99,,2013-09-04 03:41:00,
2013-09-03 21:51:00,63.0,50.0,30.58,East,80,6.0,11.0,62,-99.99,,,-99.99,,2013-09-04 03:51:00,
2013-09-03 21:56:00,63.0,50.0,30.58,ENE,60,0.0,9.0,62,-99.99,,,-99.99,,2013-09-04 03:56:00,
2013-09-03 22:01:00,63.0,50.0,30.58,ENE,70,3.0,6.0,63,-99.99,,,-99.99,,2013-09-04 04:01:00,
2013-09-03 22:06:00,63.0,50.0,30.58,WNW,290,5.0,6.0,64,-99.99,,,-99.99,,2013-09-04 04:06:00,
2013-09-03 22:11:00,61.0,50.0,30.58,WNW,300,6.0,6.0,66,-99.99,,,-99.99,,2013-09-04 04:11:00,
2013-09-03 22:16:00,61.0,50.0,30.58,WSW,250,0.0,6.0,68,-99.99,,,-99.99,,2013-09-04 04:16:00,
2013-09-03 22:21:00,60.0,50.0,30.58,WSW,250,0.0,5.0,69,-99.99,,,-99.99,,2013-09-04 04:21:00,
2013-09-03 22:26:00,60.0,50.0,30.58,WNW,300,5.0,0.0,69,-99.99,,,-99.99,,2013-09-04 04:26:00,
2013-09-03 22:31:00,59.0,49.0,30.58,North,10,0.0,5.0,70,-99.99,,,-99.99,,2013-09-04 04:31:00,
2013-09-03 22:36:00,59.0,49.0,30.58,NNE,30,0.0,5.0,70,-99.99,,,-99.99,,2013-09-04 04:36:00,
2013-09-03 22:41:00,59.0,49.0,30.58,North,0,0.0,5.0,70,-99.99,,,-99.99,,2013-09-04 04:41:00,
2013-09-03 22:46:00,58.0,49.0,30.58,North,0,0.0,5.0,71,-99.99,,,-99.99,,2013-09-04 04:46:00,
2013-09-03 22:51:00,58.0,50.0,30.58,North,0,0.0,0.0,73,-99.99,,,-99.99,,2013-09-04 04:51:00,
2013-09-03 22:56:00,58.0,49.0,30.58,North,0,0.0,0.0,73,-99.99,,,-99.99,,2013-09-04 04:56:00,
2013-09-03 23:06:00,57.0,50.0,30.58,North,10,0.0,6.0,76,-99.99,,,-99.99,,2013-09-04 05:06:00,
2013-09-03 23:11:00,56.0,49.0,30.58,NW,310,5.0,6.0,76,-99.99,,,-99.99,,2013-09-04 05:11:00,
2013-09-03 23:21:00,55.0,49.0,30.58,NNW,330,7.0,8.0,81,-99.99,,,-99.99,,2013-09-04 05:21:00,
2013-09-03 23:26:00,55.0,49.0,30.58,West,280,3.0,8.0,81,-99.99,,,-99.99,,2013-09-04 05:26:00,
2013-09-03 23:36:00,55.0,50.0,30.58,NNW,340,7.0,8.0,82,-99.99,,,-99.99,,2013-09-04 05:36:00,
2013-09-03 23:41:00,55.0,50.0,30.58,NNE,20,5.0,9.0,83,-99.99,,,-99.99,,2013-09-04 05:41:00,
2013-09-03 23:51:00,55.0,50.0,30.58,NNW,340,9.0,9.0,84,-99.99,,,-99.99,,2013-09-04 05:51:00,